Погода в Сикихоре

Филиппины     9°12′47″N   123°30′55″E
темп.,
°C
ветер,
м/с
пор.,
м/с
влажн.,
%
обл.,
%
осадки,
мм/ч
давл.,
гПа
погр.,
м
17 апреля, сб
сб1723:00+27с2379100 1.6 1010135
02:00+27сз1276100 3.1 1008251
05:00+27ссз2275100 0.3 1008459
08:00+28ссз2372100 0.3 1010568
11:00+29ссз3468100 0.1 1010618
14:00+29св226599 0.9 1007671
17:00+28ююз3373100 1.2 1007229
20:00+28ю2274100 2.0 1009175
18 апреля, вс
вс1823:00+28ю0073100 0.1 1009130
02:00+28зсз2374100 0.6 1007298
05:00+28зсз3472100 0.0 1007404
08:00+28зсз3469100 0.0 1008433
11:00+29сз4671100 0.0 1008545
14:00+29юз2368100 0.0 1005403
17:00+29з1270100 0.0 1005154
20:00+28зюз4474100 0.0 1007413
19 апреля, пн
пн1923:00+28з5771100 0.0 1007578
02:00+28з3470100 0.0 1005428
05:00+28з3473100 0.1 1006498
08:00+27юз6778100 0.6 1007565
11:00+28зюз81077100 0.9 1007875
14:00+28зюз81076100 3.5 1005900
17:00+27зюз91278100 0.9 1006899
20:00+27юз91178100 1.2 1007867
20 апреля, вт
вт2023:00+27зюз91178100 0.2 1007983
02:00+27зюз91278100 0.9 1005903
05:00+28зюз7977100 0.2 1005785
08:00+28юз91078100 0.3 1008745
11:00+28юз91078100 0.0 1007877
14:00+28юз101277100 0.1 1005945
17:00+28юз101179100 0.0 1006870
20:00+28юз101280100 0.1 1008876
21 апреля, ср
ср2123:00+27юз91180100 0.5 1008777
02:00+27юз8981100 0.9 1006665
05:00+27юз797894 0.4 1007715
08:00+28юз91078100 0.8 1009797
11:00+28юз121377100 0.2 1008918
14:00+29юз111376100 0.5 1006916
17:00+28юз11148298 0.6 10061047
20:00+27юз111382100 2.8 1008906